Weather Data

Pearl Creek Farm: 8878 N Farm Road 75, Walnut Grove MO 65770

<== Previous Day (Thursday 13 Nov 2014) | Next Day (Saturday 15 Nov 2014) ==>

Summary Precipitation Data For Friday 14 November 2014

ElementValueUnits
Precipitation0"
Notes(none)
SourcePearl Creek Farm

Summary Temperature Data For Friday 14 November 2014

ElementValueUnits
High Temperature36 oF
Low Temperature17 oF
Average Temperature26 oF
High Humidity84 %
Low Humidity51 %
Average Humidity70 %
SourcePearl Creek Farm

Detail Temperature Data For Friday 14 November 2014

Date / TimeTemp (F)RH (%)Dew Pt (F)Report Date / TimeSource
2014-11-14 00:00:00 21 79 15.5 2015-01-01 13:17:33 Pearl Creek Farm
2014-11-14 00:30:00 21 80 15.8 2015-01-01 13:17:33 Pearl Creek Farm
2014-11-14 01:00:00 21 80 15.7 2015-01-01 13:17:33 Pearl Creek Farm
2014-11-14 01:30:00 21 79 15.4 2015-01-01 13:17:33 Pearl Creek Farm
2014-11-14 02:00:00 21 80 15.8 2015-01-01 13:17:33 Pearl Creek Farm
2014-11-14 02:30:00 21 81 16.0 2015-01-01 13:17:33 Pearl Creek Farm
2014-11-14 03:00:00 20 81 15.0 2015-01-01 13:17:33 Pearl Creek Farm
2014-11-14 03:30:00 20 80 14.9 2015-01-01 13:17:33 Pearl Creek Farm
2014-11-14 04:00:00 19 81 14.0 2015-01-01 13:17:33 Pearl Creek Farm
2014-11-14 04:30:00 18 81 13.2 2015-01-01 13:17:33 Pearl Creek Farm
2014-11-14 05:00:00 18 81 13.2 2015-01-01 13:17:33 Pearl Creek Farm
2014-11-14 05:30:00 18 81 13.2 2015-01-01 13:17:33 Pearl Creek Farm
2014-11-14 06:00:00 17 81 12.1 2015-01-01 13:17:33 Pearl Creek Farm
2014-11-14 06:30:00 17 81 12.1 2015-01-01 13:17:33 Pearl Creek Farm
2014-11-14 07:00:00 18 82 13.5 2015-01-01 13:17:33 Pearl Creek Farm
2014-11-14 07:30:00 20 84 15.8 2015-01-01 13:17:33 Pearl Creek Farm
2014-11-14 08:00:00 21 82 16.3 2015-01-01 13:17:33 Pearl Creek Farm
2014-11-14 08:30:00 23 78 17.2 2015-01-01 13:17:33 Pearl Creek Farm
2014-11-14 09:00:00 24 76 17.6 2015-01-01 13:17:33 Pearl Creek Farm
2014-11-14 09:30:00 25 74 17.8 2015-01-01 13:17:33 Pearl Creek Farm
2014-11-14 10:00:00 27 69 18.2 2015-01-01 13:17:33 Pearl Creek Farm
2014-11-14 10:30:00 29 66 19.1 2015-01-01 13:17:33 Pearl Creek Farm
2014-11-14 11:00:00 29 64 18.4 2015-01-01 13:17:33 Pearl Creek Farm
2014-11-14 11:30:00 31 62 19.4 2015-01-01 13:17:33 Pearl Creek Farm
2014-11-14 12:00:00 31 58 18.0 2015-01-01 13:17:33 Pearl Creek Farm
2014-11-14 12:30:00 33 56 19.1 2015-01-01 13:17:33 Pearl Creek Farm
2014-11-14 13:00:00 33 54 18.2 2015-01-01 13:17:33 Pearl Creek Farm
2014-11-14 13:30:00 34 55 19.4 2015-01-01 13:17:33 Pearl Creek Farm
2014-11-14 14:00:00 35 54 20.1 2015-01-01 13:17:33 Pearl Creek Farm
2014-11-14 14:30:00 35 53 19.4 2015-01-01 13:17:33 Pearl Creek Farm
2014-11-14 15:00:00 36 51 19.4 2015-01-01 13:17:33 Pearl Creek Farm
2014-11-14 15:30:00 36 51 19.4 2015-01-01 13:17:33 Pearl Creek Farm
2014-11-14 16:00:00 35 51 18.5 2015-01-01 13:17:33 Pearl Creek Farm
2014-11-14 16:30:00 35 51 18.5 2015-01-01 13:17:33 Pearl Creek Farm
2014-11-14 17:00:00 34 60 21.6 2015-01-01 13:17:33 Pearl Creek Farm
2014-11-14 17:30:00 32 64 21.2 2015-01-01 13:17:33 Pearl Creek Farm
2014-11-14 18:00:00 30 67 20.4 2015-01-01 13:17:33 Pearl Creek Farm
2014-11-14 18:30:00 30 69 20.9 2015-01-01 13:17:33 Pearl Creek Farm
2014-11-14 19:00:00 29 68 19.6 2015-01-01 13:17:33 Pearl Creek Farm
2014-11-14 19:30:00 29 69 20.0 2015-01-01 13:17:33 Pearl Creek Farm
2014-11-14 20:00:00 29 72 21.0 2015-01-01 13:17:33 Pearl Creek Farm
2014-11-14 20:30:00 28 70 19.5 2015-01-01 13:17:33 Pearl Creek Farm
2014-11-14 21:00:00 28 72 20.2 2015-01-01 13:17:33 Pearl Creek Farm
2014-11-14 21:30:00 27 72 19.2 2015-01-01 13:17:33 Pearl Creek Farm
2014-11-14 22:00:00 27 73 19.4 2015-01-01 13:17:33 Pearl Creek Farm
2014-11-14 22:30:00 27 76 20.3 2015-01-01 13:17:33 Pearl Creek Farm
2014-11-14 23:00:00 27 75 20.2 2015-01-01 13:17:33 Pearl Creek Farm
2014-11-14 23:30:00 26 74 18.9 2015-01-01 13:17:33 Pearl Creek Farm

A total of 48 rows are displayed.